Overview Statistics Trail Chart Weather Telemetry Raw packets
 

This is the latest recevied weather packets stored in our database for station/object VK2EHQ. If no packets are shown the sender has not sent any weather packets the latest 10 day(s).

<< 1 2 3 4 5 >>
Time Temp. Humidity Pressure Rain* Wind** Luminosity Snow
1788565271 22.22° C 44% 1015.9 hPa 0 mm - - -
1788564673 22.22° C 46% 1016 hPa 0 mm - - -
1788564071 21.67° C 46% 1016.2 hPa 0 mm - - -
1788563471 21.11° C 47% 1016.5 hPa 0 mm - - -
1788562871 20.56° C 46% 1016.6 hPa 0 mm - - -
1788562271 20.56° C 46% 1016.7 hPa 0 mm - - -
1788561671 20.56° C 48% 1016.8 hPa 0 mm - - -
1788561070 20° C 48% 1017 hPa 0 mm - - -
1788560471 20° C 48% 1017 hPa 0 mm - - -
1788559870 20° C 48% 1016.7 hPa 0 mm - - -
1788559270 19.44° C 49% 1016.9 hPa 0 mm - - -
1788558670 18.89° C 50% 1017.2 hPa 0 mm - - -
1788558071 18.33° C 51% 1017 hPa 0 mm - - -
1788557470 18.33° C 53% 1016.9 hPa 0 mm - - -
1788556870 17.78° C 54% 1017.1 hPa 0 mm - - -
1788556270 17.22° C 54% 1017.2 hPa 0 mm - - -
1788555670 16.67° C 56% 1017 hPa 0 mm - - -
1788555070 16.11° C 57% 1016.9 hPa 0 mm - - -
1788554470 15.56° C 57% 1017 hPa 0 mm - - -
1788553870 15.56° C 57% 1017.1 hPa 0 mm - - -
1788553270 15.56° C 56% 1017.1 hPa 0 mm - - -
1788552669 15.56° C 56% 1017.1 hPa 0 mm - - -
1788552070 15.56° C 56% 1017.1 hPa 0 mm - - -
1788551469 15.56° C 56% 1017 hPa 0 mm - - -
1788550870 16.11° C 55% 1017.1 hPa 0 mm - - -

* Rain latest hour (hover to see other rain measurements)
** Current wind speed in m/s (hover to see current wind gust speed)